DB0LC-2 Weather Reports


Display with metric or nautical units.
time (UTC)temp
F
wind
direction
speed
MPH
gust
MPH
rain 1hr
in
rain 24hr
in
rain mn
in
humidity
%
barometer
mb
20260506223808 66 0 0.0 0.0 0.00 0.00 0.00 33 907.6
20260506222726 68 0 0.0 0.0 0.00 0.00 0.00 31 907.6
20260506221700 68 0 0.0 0.0 0.00 0.00 0.00 32 907.6
20260506220639 68 0 0.0 0.0 0.00 0.00 0.00 33 907.5
20260506215637 67 0 0.0 0.0 0.00 0.00 0.00 33 907.6
20260506213553 68 0 0.0 0.0 0.00 0.00 0.00 31 907.4
20260506212523 68 0 0.0 0.0 0.00 0.00 0.00 33 907.6
20260506211435 68 0 0.0 0.0 0.00 0.00 0.00 33 907.5
20260506210411 67 0 0.0 0.0 0.00 0.00 0.00 33 907.3
20260506205331 67 0 0.0 0.0 0.00 0.00 0.00 33 907.3
20260506204321 68 0 0.0 0.0 0.00 0.00 0.00 30 907.3
20260506203320 68 0 0.0 0.0 0.00 0.00 0.00 33 907.3
20260506203318 68 0 0.0 0.0 0.00 0.00 0.00 33 907.2
20260506202242 68 0 0.0 0.0 0.00 0.00 0.00 33 907.2
20260506201212 67 0 0.0 0.0 0.00 0.00 0.00 33 907.2
20260506200142 67 0 0.0 0.0 0.00 0.00 0.00 34 907.2
20260506195140 67 0 0.0 0.0 0.00 0.00 0.00 30 907.1
20260506194144 68 0 0.0 0.0 0.00 0.00 0.00 33 907.0
20260506193128 68 0 0.0 0.0 0.00 0.00 0.00 33 907.0
20260506192117 67 0 0.0 0.0 0.00 0.00 0.00 33 906.8
20260506191052 67 0 0.0 0.0 0.00 0.00 0.00 33 906.7
20260506190030 67 0 0.0 0.0 0.00 0.00 0.00 32 906.5
20260506183943 68 0 0.0 0.0 0.00 0.00 0.00 33 906.3
20260506182913 67 0 0.0 0.0 0.00 0.00 0.00 33 906.3
20260506181815 66 0 0.0 0.0 0.00 0.00 0.00 33 906.0
20260506180748 68 0 0.0 0.0 0.00 0.00 0.00 32 905.9
20260506175724 68 0 0.0 0.0 0.00 0.00 0.00 33 906.1
20260506174723 67 0 0.0 0.0 0.00 0.00 0.00 33 906.0
20260506173659 67 0 0.0 0.0 0.00 0.00 0.00 33 905.7
20260506172647 67 0 0.0 0.0 0.00 0.00 0.00 32 905.8
20260506170558 68 0 0.0 0.0 0.00 0.00 0.00 33 905.7
20260506165520 67 0 0.0 0.0 0.00 0.00 0.00 33 905.6
20260506164443 67 0 0.0 0.0 0.00 0.00 0.00 33 905.7
20260506163357 67 0 0.0 0.0 0.00 0.00 0.00 32 905.7
20260506162329 68 0 0.0 0.0 0.00 0.00 0.00 33 905.2
20260506161251 67 0 0.0 0.0 0.00 0.00 0.00 33 905.5
20260506160226 67 0 0.0 0.0 0.00 0.00 0.00 34 905.3
20260506155140 67 0 0.0 0.0 0.00 0.00 0.00 32 905.5
20260506153126 68 0 0.0 0.0 0.00 0.00 0.00 33 905.1
20260506152038 67 0 0.0 0.0 0.00 0.00 0.00 33 904.8
20260506150949 67 0 0.0 0.0 0.00 0.00 0.00 33 904.9
20260506145858 68 0 0.0 0.0 0.00 0.00 0.00 33 905.0
20260506144823 68 0 0.0 0.0 0.00 0.00 0.00 33 904.5
20260506141734 67 0 0.0 0.0 0.00 0.00 0.00 33 904.5
20260506141732 67 0 0.0 0.0 0.00 0.00 0.00 33 904.4
20260506140706 67 0 0.0 0.0 0.00 0.00 0.00 32 904.4
20260506135632 68 0 0.0 0.0 0.00 0.00 0.00 32 903.8
20260506134605 68 0 0.0 0.0 0.00 0.00 0.00 32 903.4
20260506133527 67 0 0.0 0.0 0.00 0.00 0.00 33 903.3
20260506132515 67 0 0.0 0.0 0.00 0.00 0.00 33 903.3
20260506131516 67 0 0.0 0.0 0.00 0.00 0.00 31 903.4
20260506130458 68 0 0.0 0.0 0.00 0.00 0.00 32 903.3
20260506124430 67 0 0.0 0.0 0.00 0.00 0.00 33 903.2
20260506123426 67 0 0.0 0.0 0.00 0.00 0.00 31 903.4
20260506121402 68 0 0.0 0.0 0.00 0.00 0.00 32 903.4
20260506120410 67 0 0.0 0.0 0.00 0.00 0.00 32 903.4
20260506115350 67 0 0.0 0.0 0.00 0.00 0.00 32 903.4
20260506114353 68 0 0.0 0.0 0.00 0.00 0.00 31 903.0
20260506113338 68 0 0.0 0.0 0.00 0.00 0.00 32 902.9
20260506112339 67 0 0.0 0.0 0.00 0.00 0.00 32 902.8
20260506111317 67 0 0.0 0.0 0.00 0.00 0.00 33 903.0
20260506105252 68 0 0.0 0.0 0.00 0.00 0.00 32 903.1
20260506104230 68 0 0.0 0.0 0.00 0.00 0.00 32 903.3
20260506103200 67 0 0.0 0.0 0.00 0.00 0.00 32 903.3
20260506102148 67 0 0.0 0.0 0.00 0.00 0.00 32 903.5
20260506101139 66 0 0.0 0.0 0.00 0.00 0.00 32 903.5
20260506100136 68 0 0.0 0.0 0.00 0.00 0.00 32 903.3
20260506095137 67 0 0.0 0.0 0.00 0.00 0.00 32 903.3
20260506094137 67 0 0.0 0.0 0.00 0.00 0.00 32 903.4
20260506091100 67 0 0.0 0.0 0.00 0.00 0.00 32 903.3
20260506091059 67 0 0.0 0.0 0.00 0.00 0.00 32 903.4
20260506090035 67 0 0.0 0.0 0.00 0.00 0.00 32 903.5
20260506085010 67 0 0.0 0.0 0.00 0.00 0.00 31 903.5
20260506083959 68 0 0.0 0.0 0.00 0.00 0.00 32 903.6
20260506081858 67 0 0.0 0.0 0.00 0.00 0.00 32 903.8
20260506080825 67 0 0.0 0.0 0.00 0.00 0.00 32 903.7
20260506072730 67 0 0.0 0.0 0.00 0.00 0.00 32 903.6
20260506070654 67 0 0.0 0.0 0.00 0.00 0.00 30 903.6
20260506060456 68 0 0.0 0.0 0.00 0.00 0.00 32 903.8
20260506051303 68 0 0.0 0.0 0.00 0.00 0.00 32 903.9
20260506050244 67 0 0.0 0.0 0.00 0.00 0.00 32 903.9
20260506044128 66 0 0.0 0.0 0.00 0.00 0.00 32 904.0
20260506043113 68 0 0.0 0.0 0.00 0.00 0.00 31 904.0
20260506042022 68 0 0.0 0.0 0.00 0.00 0.00 32 904.2
20260506040947 67 0 0.0 0.0 0.00 0.00 0.00 32 904.3
20260506035921 66 0 0.0 0.0 0.00 0.00 0.00 32 904.3
20260506034845 67 0 0.0 0.0 0.00 0.00 0.00 30 904.4
20260506033820 68 0 0.0 0.0 0.00 0.00 0.00 32 904.6
20260506032811 67 0 0.0 0.0 0.00 0.00 0.00 32 904.7
20260506031756 67 0 0.0 0.0 0.00 0.00 0.00 32 904.7
20260506030722 67 0 0.0 0.0 0.00 0.00 0.00 32 904.9
20260506025650 68 0 0.0 0.0 0.00 0.00 0.00 32 905.0
20260506024618 68 0 0.0 0.0 0.00 0.00 0.00 32 905.2
20260506022558 67 0 0.0 0.0 0.00 0.00 0.00 32 905.2
20260506022555 67 0 0.0 0.0 0.00 0.00 0.00 32 905.2
20260506021505 67 0 0.0 0.0 0.00 0.00 0.00 30 905.4
20260506020429 68 0 0.0 0.0 0.00 0.00 0.00 32 905.4
20260506015353 68 0 0.0 0.0 0.00 0.00 0.00 32 905.5
20260506013251 66 0 0.0 0.0 0.00 0.00 0.00 32 905.8
20260506012231 67 0 0.0 0.0 0.00 0.00 0.00 29 905.6
20260506012229 67 0 0.0 0.0 0.00 0.00 0.00 29 905.7
20260506011215 68 0 0.0 0.0 0.00 0.00 0.00 32 905.6
20260506010113 67 0 0.0 0.0 0.00 0.00 0.00 32 905.7
20260506005049 67 0 0.0 0.0 0.00 0.00 0.00 33 905.6
20260506004013 67 0 0.0 0.0 0.00 0.00 0.00 32 905.9
20260506003001 68 0 0.0 0.0 0.00 0.00 0.00 32 906.1
20260506001950 68 0 0.0 0.0 0.00 0.00 0.00 32 906.2
20260506000847 67 0 0.0 0.0 0.00 0.00 0.00 33 906.0
20260505235835 66 0 0.0 0.0 0.00 0.00 0.00 33 906.0
20260505234746 68 0 0.0 0.0 0.00 0.00 0.00 31 906.1
20260505233733 68 0 0.0 0.0 0.00 0.00 0.00 32 906.3
20260505232709 67 0 0.0 0.0 0.00 0.00 0.00 32 906.5
20260505231711 67 0 0.0 0.0 0.00 0.00 0.00 33 906.3
20260505231709 67 0 0.0 0.0 0.00 0.00 0.00 33 906.4
20260505230632 66 0 0.0 0.0 0.00 0.00 0.00 32 906.4
20260505225613 68 0 0.0 0.0 0.00 0.00 0.00 32 906.5
20260505224519 68 0 0.0 0.0 0.00 0.00 0.00 32 906.5